AO-95
1 43770U 18099N 21035.41369136 .00000835 00000-0 81056-4 0 9992
2 43770 97.6814 108.4517 0015679 138.4833 221.7582 14.95187671118570
RANGE-B
1 43772U 18099Q 21035.46711354 .00000756 00000-0 73400-4 0 9998
2 43772 97.6889 109.3035 0015409 126.9691 233.2943 14.95444168118581
RANGE-A
1 43773U 18099R 21035.47800189 .00000690 00000-0 67990-4 0 9999
2 43773 97.6751 107.9643 0014875 126.1839 234.0760 14.95115203118571
MOVE-II
1 43780U 18099Y 21035.15783055 .00000853 00000-0 81616-4 0 9996
2 43780 97.6827 108.5945 0014658 136.2039 224.0347 14.95713820118544
SNUSat 2
1 43782U 18099AA 21035.46830460 .00000593 00000-0 58708-4 0 9992
2 43782 97.6808 108.7999 0014062 125.6542 234.5991 14.95438175118599
SnugLite
1 43784U 18099AC 21035.15279724 .00000710 00000-0 69028-4 0 9998
2 43784 97.6778 108.2527 0016292 133.6875 226.5699 14.95553808118568
ITASat 1
1 43786U 18099AE 21035.15910950 .00000458 00000-0 46431-4 0 9995
2 43786 97.6833 108.7873 0016359 132.9041 227.3556 14.95501348118565
EAGLET 1
1 43790U 18099AJ 21035.15920827 .00000515 00000-0 51101-4 0 9998
2 43790 97.6823 109.1441 0014627 136.1228 224.1158 14.95880040118285
ESEO
1 43792U 18099AL 21035.45966451 .00000053 00000-0 99244-5 0 9994
2 43792 97.6786 109.1292 0014360 133.0237 227.2190 14.95681878118388
CSIM
1 43793U 18099AM 21035.48585944 .00001179 00000-0 10899-3 0 9999
2 43793 97.6808 109.3451 0014443 129.8776 230.3718 14.96369892118387
Astrocast 0.1
1 43798U 18099AS 21035.45932085 .00000185 00000-0 21536-4 0 9990
2 43798 97.6819 109.5909 0013663 117.2618 242.9997 14.96024110118630
JO-97
1 43803U 18099AX 21035.47816070 .00000928 00000-0 88300-4 0 9991
2 43803 97.6791 108.8704 0016423 132.3355 227.9261 14.95717327118617
Suomi 100
1 43804U 18099AY 21035.14688909 .00000847 00000-0 81029-4 0 9995
2 43804 97.6789 108.5221 0016448 133.4334 226.8259 14.95695604118575
Al Farabi 2
1 43805U 18099AZ 21035.83467028 .00000697 00000-0 67300-4 0 9998
2 43805 97.6793 109.3578 0016823 131.1521 229.1129 14.95879740118684
PWSat 2
1 43814U 18099BJ 21035.55344463 .00444500 00000-0 65749-2 0 9992
2 43814 97.7820 131.0283 0006449 253.1275 106.9271 15.53722423119057
CHOMPTT
1 43855U 18104G 21035.73378111 .00001634 00000-0 66528-4 0 9996
2 43855 85.0370 21.4428 0014833 277.5088 82.4469 15.23559871118882
ISAT
1 43879U 18111D 21035.80901057 .00000091 00000-0 13105-4 0 9998
2 43879 97.6927 305.3591 0012652 181.4785 178.6414 14.96468441113215
UWE-4
1 43880U 18111E 21035.48395865 .00000824 00000-0 77094-4 0 9999
2 43880 97.6949 305.4364 0012150 182.3136 177.8031 14.96713746115199
Sparrow
1 43881U 18111F 21035.19193866 -.00000084 00000-0 -22663-5 0 9998
2 43881 97.6959 305.2570 0012086 182.1553 177.9619 14.96764528115150
Lume 1
1 43908U 18111AJ 21035.67406185 .00001641 00000-0 66691-4 0 9998
2 43908 97.2477 294.5555 0022082 44.9496 315.3526 15.25728935117424
FO-98
1 43933U 19003B 21035.58848075 .00006686 00000-0 27867-3 0 9990
2 43933 97.2016 82.1327 0018705 140.5428 219.7176 15.23858319113853
FO-99
1 43937U 19003F 21035.09569785 .00001667 00000-0 68680-4 0 9991
2 43937 97.1965 83.5270 0025043 123.1870 237.1775 15.25157740113932
Delphini 1
1 44030U 98067PW 21035.55415879 .00165486 21093-4 54283-3 0 9990
2 44030 51.6260 203.0842 0004933 254.5235 105.5226 15.90219916115064
MYSat 1
1 44045U 18092F 21035.57154705 .00004988 00000-0 13924-3 0 9993
2 44045 51.6392 353.9411 0011598 84.0427 276.1879 15.38509515110992
AstroCast 0.2
1 44083U 19018F 21035.13740145 .00000916 00000-0 42994-4 0 9992
2 44083 97.3922 98.6298 0014661 81.7694 278.5204 15.22075621102617
AISTechSat 3
1 44103U 19018AB 21035.76573669 .00000987 00000-0 43960-4 0 9991
2 44103 97.3783 99.5637 0015108 91.6313 4.9768 15.23687489102806
AISat 1
1 44104U 19018AC 21035.47705773 .00001576 00000-0 51516-4 0 9994
2 44104 97.4396 112.3424 0058878 108.0541 252.7128 15.31643354103315
Raavana-1
1 44329U 98067QE 21035.56884659 .00026661 00000-0 25748-3 0 9994
2 44329 51.6357 244.9065 0006028 154.6658 205.4634 15.66246155 93267
Uguisu
1 44330U 98067QF 21035.60045233 .00026507 00000-0 25824-3 0 9992
2 44330 51.6339 245.0572 0005978 153.8178 206.3121 15.66030805 93247
NepaliSat-1
1 44331U 98067QG 21035.56030809 .00026004 00000-0 25152-3 0 9997
2 44331 51.6335 244.7900 0006015 156.4398 203.6874 15.66223463 93251
Prox-1
1 44339U 19036A 21035.51614580 .00001024 00000-0 19180-3 0 9992
2 44339 24.0004 91.3149 0010687 163.2474 196.8371 14.53354387 85855
Oculus-ASR
1 44348U 19036K 21035.83769772 .00010353 00000-0 14379-3 0 9991
2 44348 28.5165 293.6831 0345942 275.8437 80.2827 15.07975415 88846
Armadillo
1 44352U 19036P 21035.39310773 .00016744 00000-0 22604-3 0 9990
2 44352 28.5315 283.8129 0323851 290.5239 66.0886 15.13270502 88858
NO-104
1 44354U 19036R 21035.79288553 .00011318 00000-0 15435-3 0 9992
2 44354 28.5313 288.9034 0341759 281.9382 74.3096 15.09268525 88873
NO-103
1 44355U 19036S 21034.99479647 .00025037 00000-0 30698-3 0 9991
2 44355 28.5286 267.5513 0299178 316.7083 41.0361 15.20291698 89035
CP9
1 44360U 19036X 21035.59201520 .00057666 -52704-5 52177-3 0 9990
2 44360 28.5079 224.7567 0253726 27.8633 333.5305 15.35019819 89378
Move-IIb
1 44398U 19038N 21035.87516745 .00001927 00000-0 11175-3 0 9990
2 44398 97.5646 0.6620 0026188 48.9264 311.4224 15.13109106 87716
SONATE
1 44400U 19038Q 21035.86150059 .00000734 00000-0 45910-4 0 9995
2 44400 97.5701 0.6089 0026481 48.2745 312.0746 15.12302060 87690
BeeSat 9
1 44412U 19038AC 21035.34640957 .00001421 00000-0 84059-4 0 9993
2 44412 97.5710 0.2836 0023773 54.9806 305.3651 15.12865578 87320
JAISAT-1
1 44419U 19038F 21035.62320447 .00001463 00000-0 85327-4 0 9995
2 44419 97.5711 1.0005 0022604 52.8780 307.4512 15.13350304 87703
LightSail-2
1 44420U 19036AC 21035.45406867 .00005596 00000-0 11361-2 0 9993
2 44420 24.0069 79.0048 0015285 136.6480 223.5217 14.58404173 84140
Taurus 1
1 44530U 19059C 21035.79849812 .00000674 00000-0 20217-3 0 9991
2 44530 98.5567 125.0323 0015075 177.7385 182.3866 14.45881448 73911
Duchifat 3
1 44854U 19089C 21035.74114124 .00000471 00000-0 44245-4 0 9992
2 44854 36.9646 165.3598 0006614 145.4385 214.6787 14.99315227 63170
OPS-SAT
1 44878U 19092F 21035.48308454 .00001328 00000-0 72337-4 0 9999
2 44878 97.4697 220.9667 0012428 272.1950 87.7860 15.16101295 62689
TO-108
1 44881U 19093C 21035.81257226 .00000115 00000-0 21529-4 0 9991
2 44881 97.9369 116.0187 0015285 9.8256 350.3249 14.81420753 61092
FloripaSat 1
1 44885U 19093G 21035.77100810 .00000302 00000-0 44523-4 0 9993
2 44885 97.9379 116.3768 0014921 18.3294 341.8447 14.82192279 61116
RS-44
1 44909U 19096E 21035.17013826 .00000018 00000-0 22640-4 0 9997
2 44909 82.5206 201.3506 0218039 44.9506 316.9019 12.79708374 51822
SwampSat-2
1 45115U 19071E 21035.37633937 .00030530 00000-0 67428-3 0 9997
2 45115 51.6389 313.6134 0010279 166.9666 193.1588 15.43544353 56823
HO-107
1 45119U 19071J 21035.76319285 .00002674 00000-0 89015-4 0 9996
2 45119 51.6432 319.8230 0011886 167.4321 192.6960 15.34834229 56787
Phoenix
1 45258U 98067RB 21034.91311000 .00007816 00000-0 12592-3 0 9993
2 45258 51.6396 275.8023 0006647 118.7624 241.4035 15.53955610 54429
AztechSat-1
1 45261U 98067RE 21034.93210386 .00020759 00000-0 27483-3 0 9990
2 45261 51.6380 271.4396 0007939 137.0464 223.1150 15.58236287 54503
